Location: Fort Wayne
(41.1310°N, 85.1290°W)
Time: 06:39:56
(UTC-04:00)

ISS - Visible Passes

Search period start: 24 July 2014 00:00
Search period end: 03 August 2014 00:00
Orbit: 411 x 419 km, 51.6° (Epoch: 24 July)

Date Brightness Start Highest point End Pass type
(mag) Time Alt. Az. Time Alt. Az. Time Alt. Az.
24 Jul -0.9 03:01:31 22° NE 03:01:31 22° NE 03:02:52 10° NE visible
24 Jul -0.8 04:34:22 11° WNW 04:36:42 19° NNW 04:39:09 10° NNE visible
25 Jul -1.3 03:47:15 23° NW 03:47:44 23° NNW 03:50:31 10° NE visible
25 Jul -0.4 05:23:33 10° NNW 05:25:22 14° N 05:27:11 10° NNE visible
26 Jul -0.8 03:00:08 23° NNE 03:00:08 23° NNE 03:01:55 10° NE visible
26 Jul -0.4 04:34:25 10° NW 04:36:21 14° N 04:38:18 10° NNE visible
27 Jul 0.0 02:13:03 12° NE 02:13:03 12° NE 02:13:19 10° NE visible
27 Jul -0.5 03:45:55 13° NW 03:47:24 16° NNW 03:49:35 10° NNE visible
27 Jul -0.3 05:23:05 10° NNW 05:25:09 15° N 05:27:13 10° NE visible
28 Jul -0.6 02:58:51 19° N 02:58:51 19° N 03:01:01 10° NNE visible
28 Jul -0.2 04:34:21 10° NNW 04:36:13 14° N 04:38:05 10° NE visible
29 Jul -0.1 02:11:50 14° NNE 02:11:50 14° NNE 02:12:31 10° NE visible
29 Jul -0.2 03:45:28 10° NW 03:47:18 14° N 03:49:08 10° NNE visible
29 Jul -0.5 05:22:21 10° NNW 05:25:00 21° NNE 05:27:38 10° ENE visible
30 Jul -0.3 02:57:44 14° NNW 02:58:26 15° N 03:00:24 10° NNE visible
30 Jul -0.3 04:33:52 10° NNW 04:36:11 17° NNE 04:38:29 10° ENE visible
31 Jul 0.0 02:10:50 14° NNE 02:10:50 14° NNE 02:11:51 10° NNE visible
31 Jul -0.1 03:45:20 10° NNW 03:47:22 15° N 03:49:23 10° NE visible
31 Jul -1.6 05:21:40 10° NW 05:24:50 36° NNE 05:27:59 10° E visible
01 Aug 0.0 02:56:58 11° NNW 02:58:34 14° N 03:00:25 10° NE visible
01 Aug -0.9 04:33:16 10° NW 04:36:10 26° NNE 04:39:04 10° E visible
02 Aug 0.1 02:10:34 13° NNE 02:10:34 13° NNE 02:11:38 10° NNE visible
02 Aug -0.5 03:44:55 10° NNW 03:47:30 20° NNE 03:50:05 10° ENE visible
02 Aug -3.3 05:21:14 10° NW 05:24:37 88° NE 05:28:00 10° SE visible
02 Aug -2.5 22:03:57 10° SSW 22:06:53 29° SE 22:09:51 10° ENE visible
02 Aug -1.6 23:40:27 10° W 23:43:09 34° NW 23:43:09 34° NW visible
